Showing default

GLOBALSTAR M040, 25622

Orbit data source: Space-Track

GLOBALSTAR M040, 25622 is a payload satellite owned by Globalstar (US) in LEO that was launched on Tue, 09 Feb 1999 UTC via a SOYUZ-U-PVB launch vehicle from the Tyuratam Missile And Space Complex (TTMTR). Payload-class satellites include a variety of spacecraft equipped with specific instruments for various scientific and technological missions. These include communications satellites like Starlink; space stations such as the ISS; scientific satellites like the Hubble; Earth observation satellites from companies like Planet Labs, Umbra, and HawkEye 360; GPS; miniature CubeSats for education and research; and military/defense satellites.

Loading next visibility...
Identifier
25622, 1999-004B
Orbit
LEO
Country
Flag of USUS / GLOB
Related business
Manufacturer
SS/Loral
Mission
Non-operational Commercial Communications
Bus & Motor
LS-400, LS-400 AOCS
Mass
450 kg wet, 380 kg dry
Launch date (UTC)
1999-02-09 (27 years ago)
Launch vehicle
SOYUZ-U-PVB
Launch site
Tyuratam Missile And Space Complex (TTMTR)
Object type
Payload
Rocket body
Debris
Shape & HBR
Box + 2 Pan, 6.0 m
Radar Cross Section
5.587 m², Large (>1 m²)

Expand to show TLE details & history
Last TLE update: 7 hours ago

TLE from 7 hours ago
0 GLOBALSTAR M040
1 25622U 99004B   26123.04992561 -.00000061  00000-0  23667-3 0  9994
2 25622  51.9899 164.0606 0000718  18.3347 358.2128 12.62033648255641
Epoch: 2026-05-03T01:11Z
TLE epoch observation values (Epoch: 2026-05-03T01:11:53.572Z)
Latitude
12.97047°
Longitude
-64.55279°
Altitude
1,413.943 km
Speed
7.156 km/s
True Right ascension
11h 37m 31s
True Declination
12° 54' 06"
Sunlit
Object was in full shadow at epoch
Visualization orbit readout
Latitude
Unknown
Longitude
Unknown
Altitude
Unknown
Speed
Unknown
Apparent Right ascension
Unknown
Apparent Declination
Unknown
Sunlit
N/A
Visualization observer readout
Local Sidereal Time
16:09:37
Azimuth
Unknown
Elevation
Unknown
Doppler factor
Unknown
Orbital elements
Apogee altitude
1,415.515 km
Perigee altitude
1,414.396 km
Semi-major axis
7,793.092 km
Eccentricity
0.00007
Inclination
51.9899°
RAAN
164.0606°
Arg. of periapsis
18.3347°
True anomaly
358.21254°
Mean anomaly
358.2128°
Eccentric anomaly
358.21267°
Mean motion
3.15485 °/min
Orbital period
114.11 mins
BSTAR
0.00023667
Loading maneuver chart data...
Computing Atmospheric mass density...
Loading historical data...
Loading historical data...
Loading historical data...
Loading historical data...
Loading historical data...
Loading historical data...
Loading historical data...
Other satellites on launch #4 in the year 1999 (1999-02-09 UTC)

Documentation

Showing up to 5 results
|